Location: Azenweiler
(47.8027°N, 9.4096°E)
Time: 02:12:30
(UTC+00:00)

Cosmos 1626 Rocket - Pass Details

Date: 23 March 2026
Orbit: 596 x 624 km, 82.5° (Epoch: 13 April)

Event Time Altitude Azimuth Distance (km) Brightness Sun altitude
Rises 03:26:03 0° 346° (NNW) 2,885 7.1 -19.3°
Reaches altitude 10° 03:28:19 10° 342° (NNW) 1,971 6.2 -18.9°
Maximum altitude 03:32:34 54° 265° (W) 735 3.5 -18.3°
Enters shadow 03:34:58 24° 197° (SSW) 1,267 4.8 -17.9°
